Regional Weather Roundup
Issued by NWS Little Rock, AR

Home | Current Version | Previous Version | Graphics & Text | Print | Product List | Glossary On
Versions: 1 2 3 4 5 6 7 8 9 10 11 12 13 14 15 16 17 18 19 20 21 22 23 24 25 26 27 28 29 30 31 32 33 34 35 36 37 38 39 40 41 42 43 44 45 46 47 48 49 50
000
ASUS44 KLZK 291505
RWRLZK

WEATHER ROUNDUP FOR ARKANSAS
NATIONAL WEATHER SERVICE LITTLE ROCK AR
1000 AM CDT FRI AUG 29 2014

NOTE: "FAIR" INDICATES FEW OR NO CLOUDS BELOW 12,000 FEET WITH NO
SIGNIFICANT WEATHER AND/OR OBSTRUCTIONS TO VISIBILITY.

ARZ001-003-010-029-291600-
NORTHWEST ARKANSAS

CITY           SKY/WX    TMP DP  RH WIND       PRES   REMARKS
FAYETTEVILLE   PTSUNNY   79  69  71 S14       29.96R
FORT SMITH     MOSUNNY   86  70  58 W10       29.91S HX  90
HARRISON       MOSUNNY   80  69  69 SW9       29.97F
BENTONVILLE    MOSUNNY   82  70  65 SW12      29.96R HX  86
ROGERS         MOSUNNY   80  68  66 S8G16     29.97R
SILOAM SPGS    MOSUNNY   79  66  65 SW13G22   29.97R
HIGHFILL       MOSUNNY   79  68  69 S14G23    29.95R
$$

ARZ004-005-016-291600-
NORTH CENTRAL ARKANSAS

CITY           SKY/WX    TMP DP  RH WIND       PRES   REMARKS
BATESVILLE     MOSUNNY   84  70  61 SW5       29.96S HX  88
FLIPPIN        SUNNY     81  64  57 S3        29.96S
MTN HOME       MOSUNNY   82  67  60 S9        29.96S
$$

ARZ040-041-291600-
WEST CENTRAL ARKANSAS

CITY           SKY/WX    TMP DP  RH WIND       PRES   REMARKS
MENA           MOSUNNY   79  73  83 CALM      29.97S
MOUNT IDA      PTSUNNY   80  73  79 CALM      29.95S
$$

ARZ009-017-025-026-028-291600-
NORTHEAST ARKANSAS

CITY           SKY/WX    TMP DP  RH WIND       PRES   REMARKS
CORNING          N/A     84  68  58 S10       29.98R HX  87
JONESBORO      SUNNY     85  68  56 SW6       29.97S HX  88
NEWPORT        SUNNY     83  71  66 S7        29.98R HX  87
WALNUT RIDGE   SUNNY     82  63  51 S6        29.96S
BLYTHEVILLE    SUNNY     85  74  69 SW9       29.99R HX  92
$$

ARZ022-023-033-042-044-291600-
CENTRAL ARKANSAS

CITY           SKY/WX    TMP DP  RH WIND       PRES   REMARKS
LITTLE ROCK    PTSUNNY   79  70  74 S6        29.96F
N LITTLE ROCK  PTSUNNY   80  72  77 S6        29.96F
JACKSONVILLE   PTSUNNY   81  70  70 SE3       29.96F
SEARCY         MOSUNNY   81  72  74 W3        29.97F HX  85
HOT SPRINGS    MOSUNNY   82  74  76 VRB5      29.97S HX  88
RUSSELLVILLE   MOSUNNY   81  71  71 CALM      29.96R HX  85
CLINTON        FAIR      81  70  69 SE3       29.97S
$$

ARZ036-291600-
EAST ARKANSAS

CITY           SKY/WX    TMP DP  RH WIND       PRES   REMARKS
WEST MEMPHIS   SUNNY     84  73  69 SW7       29.97F HX  90
$$

ARZ050-053-066-070-073-291600-
SOUTHWEST ARKANSAS

CITY           SKY/WX    TMP DP  RH WIND       PRES   REMARKS
ARKADELPHIA    FAIR      86  74  67 S6        29.96F HX  94
CAMDEN         SUNNY     84  73  70 SW5       29.96S HX  91
TEXARKANA      MOSUNNY   82  74  76 SW7       29.95S HX  88
EL DORADO      PTSUNNY   81  74  79 S5        29.97S HX  86
DE QUEEN       CLOUDY    80  75  84 VRB6      29.93S HX  85
$$

ARZ056-057-069-291600-
SOUTHEAST ARKANSAS

CITY           SKY/WX    TMP DP  RH WIND       PRES   REMARKS
PINE BLUFF     MOSUNNY   79  72  79 E3        29.97S
STUTTGART      MOSUNNY   79  72  78 CALM      29.99S
MONTICELLO     SUNNY     85  71  63 VRB5      29.97S HX  90

$$




USA.gov is the U.S. government's official web portal to all federal, state and local government web resources and services.